Location: Cahas Mountain Overlook
(37.0833°N, 80.1000°W)
Time: 11:14:34
(UTC-04:00)

A-11 Canister half - Pass Details

Date: 08 February 2026
Orbit: 1524 x 1683 km, 47.3° (Epoch: 16 March)

Event Time Altitude Azimuth Distance (km) Brightness Sun altitude
Rises 19:30:05 0° 244° (WSW) 4,685 12.8 -19.8°
Reaches altitude 10° 19:33:08 10° 246° (WSW) 3,694 12.0 -20.4°
Maximum altitude 19:42:26 74° 331° (NNW) 1,575 9.0 -22.2°
Enters shadow 19:48:02 28° 52° (NE) 2,568 9.7 -23.3°
